Location: Alvis C Story Elementary School
(33.0968°N, 96.6364°W)
Time: 07:31:16
(UTC+00:00)

Cosmos 1602 - Pass Details

Date: 09 July 2022
Orbit: 509 x 526 km, 82.5° (Epoch: 14 August)

Event Time Altitude Azimuth Distance (km) Brightness Sun altitude
Exits shadow 08:49:50 26° 331° (NNW) 1,045 5.4 -25.5°
Drops below altitude 10° 08:51:47 10° 350° (N) 1,733 6.9 -25.3°
Sets 08:54:01 0° 358° (N) 2,625 8.1 -25.0°
